Weather Roundup
Issued by NWS Chicago, IL

Home | Current Version | Previous Version | Text Only | Print | Product List | Glossary On
Versions: 1 2 3 4 5 6 7 8 9 10 11 12 13 14 15 16 17 18 19 20 21 22 23 24 25 26 27 28 29 30 31 32 33 34 35 36 37 38 39 40 41 42 43 44 45 46 47 48 49 50
000
NZUS59 KLOT 190906
HRRLOT

CHICAGO AREA WEATHER ROUNDUP
NATIONAL WEATHER SERVICE CHICAGO/ROMEOVILLE IL
300 AM CST FRI DEC 19 2014

NOTE: "FAIR" INDICATES FEW OR NO CLOUDS BELOW 12,000 FEET WITH NO
SIGNIFICANT WEATHER AND/OR OBSTRUCTIONS TO VISIBILITY.

* THESE STATIONS ARE NOT UNDER NWS QUALITY CONTROL. THEY ALSO MAY NOT
  REPORT WEATHER SUCH AS PRECIPITATION OR FOG.

ILZ005-006-012>014-019>023-191000-
NORTHEAST ILLINOIS

CITY           SKY/WX    TMP DP  RH WIND       PRES   REMARKS
OHARE          CLOUDY    28  22  78 NW5       30.26F WCI  23
MIDWAY         FLURRIES  29  23  78 NW6       30.28R WCI  23
AURORA         CLOUDY    26  20  77 NW5       30.28S WCI  20
LANSING*       CLOUDY    28  23  81 W3        30.27S
JOLIET*        CLOUDY    26  20  77 W6        30.29S WCI  20
WAUKEGAN       CLOUDY    27  21  78 NW5       30.26S WCI  22
DUPAGE AIRPORT CLOUDY    27  20  75 W5        30.27S WCI  22
WHEELING       CLOUDY    28  23  81 N6        30.29S WCI  22
KANKAKEE*      CLOUDY    26  22  87 W5        30.30R WCI  20
MORRIS*        CLOUDY    23  21  90 W5        30.29S WCI  17
LEWIS AIRPORT* CLOUDY    27  21  79 NW7       30.28S WCI  19
NORTHERLY IS     N/A     30  24  78 NW5         N/A  WCI  25
$$

WIZ051-052-058>065-066-070>072-191000-
SOUTHEAST WISCONSIN

CITY           SKY/WX    TMP DP  RH WIND       PRES   REMARKS
MILWAUKEE      CLOUDY    28  19  69 NW9       30.27S WCI  19
KENOSHA*       CLOUDY    27  21  78 NW7       30.27R WCI  19
RACINE*        CLOUDY    27  20  75 W6        30.28S WCI  20
BURLINGTON     CLOUDY    25  20  83 CALM      30.28S
WAUKESHA       CLOUDY    25  21  86 NW6       30.27F WCI  18
WEST BEND      CLEAR     19  18  93 CALM      30.27R
$$

INZ001>003-010>013-019-020-191000-
NORTHWEST INDIANA

CITY           SKY/WX    TMP DP  RH WIND       PRES   REMARKS
GARY*          CLOUDY    31  21  66 W7        30.27S WCI  24
MICHIGAN CITY* NOT AVBL
RENSSELAER*    NOT AVBL
VALPARAISO     CLOUDY    26  22  84 W7        30.26S WCI  18
$$

LMZ740>746-191000-
SOUTHERN LAKE MICHIGAN

STATION/POSITION TIME  SKY/WX   TEMP WIND        PRES    VSBY
                                AIR  DIR/SP/G
                 (UTC)          (F)  (DEG/KT/KT) (MB)    (MI)
HARRISON CRIB    0900            29  300/ 10/ 13   N/A
BURNHAM HARBOR   0900            30  320/  1/ 11   N/A
CALUMET HARBOR   0900            29  280/  5/  9 1023.8R
BURNS HARBOR     NOT AVBL
MICHIGAN CITY    NOT AVBL
$$

ABBREVIATIONS USED IN REMARKS
   TC - TEMPERATURE IN CELSIUS
  WCI - WIND CHILL INDEX
   HX - HEAT INDEX
  VSB - VISIBILITY
$$


USA.gov is the U.S. government's official web portal to all federal, state and local government web resources and services.